CDT,Max TemperatureF,Mean TemperatureF,Min TemperatureF,Max Dew PointF,MeanDew PointF,Min DewpointF,Max Humidity, Mean Humidity, Min Humidity, Max Sea Level PressureIn, Mean Sea Level PressureIn, Min Sea Level PressureIn, Max VisibilityMiles, Mean VisibilityMiles, Min VisibilityMiles, Max Wind SpeedMPH, Mean Wind SpeedMPH, Max Gust SpeedMPH,PrecipitationIn, CloudCover, Events, WindDirDegrees
2013-5-1,82,70,59,57,54,51,82,55,36,30.11,30.05,29.95,10,10,10,14,8,24,0.00,1,,178
2013-5-2,66,57,47,56,52,46,95,80,64,30.21,30.13,30.08,10,9,2,15,5,21,0.40,5,Rain-Thunderstorm,16
2013-5-3,59,50,42,58,49,41,97,94,89,30.11,29.96,29.84,10,5,2,16,8,26,0.64,7,Rain-Thunderstorm,59
2013-5-4,67,60,53,56,54,52,96,84,61,30.03,29.94,29.87,10,9,5,13,8,21,0.11,6,Rain,115
2013-5-5,74,60,48,55,51,43,99,74,34,30.03,29.98,29.92,10,9,2,15,4,23,0.00,4,Rain,55
2013-5-6,76,65,54,52,45,35,89,54,29,30.03,29.99,29.95,10,10,10,13,5,21,0.00,4,,30
2013-5-7,78,62,45,54,43,37,90,53,27,30.06,30.01,29.97,10,10,1,8,3,,0.00,0,,330
2013-5-8,80,64,49,55,48,42,92,57,26,30.04,30.00,29.95,10,10,10,7,1,,0.00,0,,233
2013-5-9,71,66,60,63,59,54,100,86,55,29.97,29.89,29.80,10,9,4,17,4,28,0.36,6,Rain-Thunderstorm,171
2013-5-10,62,55,48,62,51,45,100,90,83,29.99,29.90,29.80,10,8,1,12,7,,0.00,8,Rain,333
2013-5-11,60,52,44,50,38,26,93,62,32,30.10,29.99,29.91,10,10,7,24,8,38,0.00,3,,286
2013-5-12,57,48,38,33,29,25,81,51,30,30.17,30.13,30.10,10,10,10,16,9,24,0.00,0,,307
2013-5-13,68,51,35,40,34,28,91,52,25,30.19,30.11,30.00,10,10,10,10,2,16,0.00,0,,212
2013-5-14,87,71,55,62,53,39,65,52,39,30.00,29.80,29.68,10,10,10,15,10,23,0.00,0,,206
2013-5-15,82,70,58,61,55,49,74,54,31,29.86,29.81,29.71,10,10,10,21,10,26,0.00,0,Rain-Thunderstorm,238
2013-5-16,83,69,55,61,52,45,85,55,26,29.95,29.89,29.83,10,10,7,12,3,,0.00,1,Thunderstorm,129
2013-5-17,81,70,59,63,60,56,90,71,51,30.00,29.96,29.93,10,10,10,17,5,22,0.00,3,,131
2013-5-18,81,70,60,64,61,59,96,73,51,30.03,29.98,29.91,10,8,3,12,4,17,0.00,3,,142
2013-5-19,88,74,61,71,64,56,96,69,48,29.93,29.84,29.72,10,9,3,21,8,26,0.00,1,,155
2013-5-20,82,72,62,67,61,59,94,68,47,29.83,29.76,29.68,10,10,4,28,13,37,0.53,2,Rain-Thunderstorm,204
2013-5-21,80,71,62,64,61,59,91,73,49,29.72,29.70,29.66,10,10,10,17,10,24,0.01,2,Rain,208
2013-5-22,72,65,59,64,58,53,96,78,53,29.80,29.70,29.64,10,10,4,14,4,20,0.23,7,Rain-Thunderstorm,243
2013-5-23,60,54,48,56,51,46,95,82,66,30.27,30.02,29.80,10,9,2,14,7,21,0.02,6,Rain,352
2013-5-24,66,52,39,44,39,34,90,63,39,30.44,30.36,30.28,10,10,10,13,5,17,0.00,0,,77
2013-5-25,53,50,46,50,43,35,94,78,58,30.40,30.32,30.25,10,10,4,13,6,17,0.25,6,Rain-Thunderstorm,105
2013-5-26,62,56,49,57,51,44,96,86,74,30.26,30.19,30.06,10,8,3,17,9,25,1.37,8,Rain-Thunderstorm,112
2013-5-27,70,64,58,65,60,56,95,89,80,30.05,29.92,29.80,10,9,4,16,9,24,0.07,6,Rain-Thunderstorm,126
2013-5-28,75,70,64,69,65,62,96,87,74,29.88,29.79,29.71,10,10,2,21,8,34,1.13,5,Rain-Thunderstorm,204
2013-5-29,84,72,61,70,65,58,97,76,57,29.95,29.88,29.76,10,10,5,17,9,25,0.28,2,Rain-Thunderstorm,191
2013-5-30,84,72,62,70,66,59,97,78,63,29.90,29.85,29.74,10,10,5,25,14,37,0.51,3,Rain-Thunderstorm,176
2013-5-31,74,68,61,70,64,59,97,88,70,29.87,29.80,29.70,10,10,7,16,7,23,0.18,3,Rain-Thunderstorm,186